DELTA 1 DEB, 2977

Orbit data source: Space-Track

DELTA 1 DEB, 2977 is space debris in SSO originally from a launch on Thu, 20 Apr 1967 UTC launched from the Air Force Western Test Range (AFWTR). Debris objects in space refer to the collection of defunct objects orbiting the Earth. Examples of debris include non-operational satellites, rocket bodies, and fragments generated from explosions, collisions, or faulty payload assembly.

Loading next visibility...
Identifier
2977, 1967-036D
Orbit
SSO
Country
Flag of USUS
Related business
Manufacturer
Unknown
Mission
Spacecraft
Bus & Motor
Unknown
Mass
Unknown
Launch date (UTC)
1967-04-20 (59 years ago)
Launch vehicle
Unknown
Launch site
Air Force Western Test Range (AFWTR)
Object type
Payload
Rocket body
Debris
Shape & HBR
Unknown shape, 0.1 m
Radar Cross Section
Small (<0.1 m²)

Expand to show TLE details & history
Last TLE update: 6 days ago

TLE from 6 days ago
0 DELTA 1 DEB
1 02977U 67036D   25348.40728856 -.00000001  00000-0  26386-3 0  9999
2 02977 101.5899 310.2820 0059264 268.7222 243.7523 12.56859291690178
Epoch: 2025-12-14T09:46Z
TLE epoch observation values (Epoch: 2025-12-14T09:46:29.731Z)
Latitude
27.54906°
Longitude
-93.55127°
Altitude
1,459.734 km
Speed
7.126 km/s
True Right ascension
09h 05m 34s
True Declination
27° 25' 15"
Sunlit
Object was in full shadow at epoch
Visualization orbit readout
Latitude
Unknown
Longitude
Unknown
Altitude
Unknown
Speed
Unknown
Apparent Right ascension
Unknown
Apparent Declination
Unknown
Sunlit
N/A
Visualization observer readout
Local Sidereal Time
09:14:06
Azimuth
Unknown
Elevation
Unknown
Doppler factor
Unknown
Orbital elements
Apogee altitude
1,479.758 km
Perigee altitude
1,387.169 km
Semi-major axis
7,811.6 km
Eccentricity
0.00593
Inclination
101.5899°
RAAN
310.282°
Arg. of periapsis
268.7222°
True anomaly
243.14521°
Mean anomaly
243.7523°
Eccentric anomaly
243.44855°
Mean motion
3.14364 °/min
Orbital period
114.52 mins
BSTAR
0.00026386
Loading maneuver chart data...
Computing Atmospheric mass density...
Loading historical data...
Loading historical data...
Loading historical data...
Loading historical data...
Loading historical data...
Loading historical data...
Loading historical data...
Other satellites on launch #36 in the year 1967 (1967-04-20 UTC)

Documentation

Showing up to 5 results
|